Simultaneous Nadir Overpasses (SNOs) Predictions

Prediction of SNOs between NOAA-19 and TERRA Satellite Orbit:

Table of predicted SNOs for the next 14.0 days since TLE Epoch: 8/5/2023
Index Date (NOAA-19) Time (NOAA-19) Lat,Lon (NOAA-19) SZA (NOAA-19 ) Date (TERRA) Time (TERRA) Lat,Lon (TERRA) SZA (TERRA ) Distance(km) Time Diff (sec)
1 08/05/2023 18:35:12 80.86, -66.61 65.28 08/05/2023 18:36:10 80.85, -66.72 65.29 1.95 58
2 08/05/2023 19:26:09 -80.87, 101.16 114.66 08/05/2023 19:25:32 -80.87, 101.10 114.68 1.05 37
3 08/07/2023 22:25:39 -80.85, 55.40 114.16 08/07/2023 22:26:27 -80.85, 55.58 114.14 3.11 48
4 08/07/2023 23:16:37 80.86,-136.63 65.92 08/07/2023 23:15:48 80.87,-136.45 65.93 3.22 49
5 08/10/2023 02:16:05 80.85, 178.06 66.49 08/10/2023 02:16:43 80.84, 177.90 66.48 3.27 38
6 08/10/2023 03:07:03 -80.87, -14.09 113.44 08/10/2023 03:06:04 -80.88, -13.96 113.44 2.76 59
7 08/12/2023 06:06:31 -80.86, -59.24 112.84 08/12/2023 06:06:58 -80.86, -59.40 112.84 2.85 27
8 08/12/2023 06:57:29 80.86, 108.28 67.20 08/12/2023 06:56:20 80.86, 108.24 67.17 0.81 69
9 08/14/2023 09:56:57 80.85, 62.85 67.79 08/14/2023 09:57:13 80.86, 63.02 67.82 3.34 16
10 08/16/2023 13:47:25 -80.85,-174.86 111.54 08/16/2023 13:47:29 -80.84,-174.88 111.55 1.15 4



Historial Predications of SNOs between NOAA-19 and TERRA
